When you browse on this site, cookies collect data to enhance your experience and personalize the content and advertising you see.
Visit our Privacy Policy to learn more. By continuing to use the site, you agree to this use of cookies and data.
  • In Lithuania
  • List of Countries
  • For 7 days
  • Water Temperature
  • Satellite Maps
  • Weather Map
  • Weather Widgets
  • user-avatar
    Login

    Hourly Weather Mayakovskogo

    Today, 26 March, Tuesday

    Time Temperature Precipitation Wind Pressure Humidity
    00:00 +6°C° 0 mm 2 mps 760 mmHg 71%
    01:00 +5°C° 0 mm 2 mps 760 mmHg 72%
    02:00 +5°C° 0 mm 2 mps 760 mmHg 74%
    03:00 +4°C° 0 mm 3 mps 760 mmHg 75%
    04:00 +4°C° 0 mm 3 mps 760 mmHg 77%
    05:00 +4°C° 0 mm 2 mps 760 mmHg 79%
    06:00 +4°C° 0 mm 2 mps 760 mmHg 81%
    07:00 +4°C° 0 mm 3 mps 760 mmHg 76%
    08:00 +7°C° 0 mm 3 mps 760 mmHg 70%
    09:00 +8°C° 0 mm 3 mps 760 mmHg 65%
    10:00 +9°C° 0 mm 3 mps 760 mmHg 58%
    11:00 +11°C° 0 mm 3 mps 760 mmHg 51%
    12:00 +12°C° 0 mm 3 mps 760 mmHg 44%
    13:00 +13°C° 0 mm 3 mps 760 mmHg 42%
    14:00 +14°C° 0 mm 3 mps 759 mmHg 40%
    15:00 +14°C° 0 mm 3 mps 759 mmHg 38%
    16:00 +15°C° 0 mm 2 mps 759 mmHg 41%
    17:00 +14°C° 0 mm 2 mps 759 mmHg 44%
    18:00 +13°C° 0 mm 2 mps 758 mmHg 48%
    19:00 +12°C° 0 mm 1 mps 759 mmHg 50%
    20:00 +12°C° 0 mm 1 mps 759 mmHg 53%
    21:00 +11°C° 0 mm 1 mps 759 mmHg 56%
    22:00 +10°C° 0 mm 1 mps 759 mmHg 57%
    23:00 +10°C° 0 mm 1 mps 758 mmHg 58%

    Tomorrow, 27 March, Wednesday

    Time Temperature Precipitation Wind Pressure Humidity
    00:00 +9°C° 0 mm 1 mps 758 mmHg 59%
    01:00 +9°C° 0 mm 1 mps 758 mmHg 61%
    02:00 +8°C° 0 mm 1 mps 758 mmHg 63%
    03:00 +8°C° 0 mm 1 mps 758 mmHg 65%
    04:00 +7°C° 0 mm 1 mps 758 mmHg 66%
    05:00 +7°C° 0 mm 1 mps 758 mmHg 67%
    06:00 +7°C° 0 mm 1 mps 758 mmHg 69%
    07:00 +8°C° 0 mm 1 mps 758 mmHg 65%
    08:00 +8°C° 0 mm 2 mps 758 mmHg 62%
    09:00 +9°C° 0 mm 2 mps 758 mmHg 59%
    10:00 +10°C° 0 mm 3 mps 758 mmHg 61%
    11:00 +11°C° 0 mm 4 mps 758 mmHg 62%
    12:00 +12°C° 0 mm 5 mps 758 mmHg 63%
    13:00 +10°C° 0.1 mm 5 mps 758 mmHg 65%
    14:00 +11°C° 0.1 mm 4 mps 758 mmHg 67%
    15:00 +10°C° 0.1 mm 4 mps 758 mmHg 69%
    16:00 +10°C° 0 mm 4 mps 758 mmHg 68%
    17:00 +10°C° 0 mm 3 mps 758 mmHg 67%
    18:00 +10°C° 0 mm 3 mps 759 mmHg 65%
    19:00 +9°C° 0.1 mm 3 mps 759 mmHg 67%
    20:00 +7°C° 0.1 mm 4 mps 760 mmHg 69%
    21:00 +6°C° 0.1 mm 4 mps 760 mmHg 71%
    22:00 +6°C° 0 mm 5 mps 760 mmHg 72%
    23:00 +5°C° 0 mm 5 mps 760 mmHg 72%

    Day after tomorrow, 28 March, Thursday

    Time Temperature Precipitation Wind Pressure Humidity
    00:00 +4°C° 0 mm 6 mps 760 mmHg 73%
    01:00 +3°C° 0 mm 5 mps 760 mmHg 73%
    02:00 +3°C° 0 mm 5 mps 760 mmHg 73%
    03:00 +3°C° 0 mm 4 mps 761 mmHg 73%
    04:00 +2°C° 0 mm 5 mps 761 mmHg 74%
    05:00 +2°C° 0 mm 5 mps 761 mmHg 74%
    06:00 +2°C° 0 mm 6 mps 762 mmHg 75%
    07:00 +2°C° 0 mm 5 mps 762 mmHg 73%
    08:00 +3°C° 0 mm 5 mps 763 mmHg 71%
    09:00 +3°C° 0 mm 5 mps 763 mmHg 69%
    10:00 +5°C° 0 mm 5 mps 764 mmHg 64%
    11:00 +6°C° 0 mm 4 mps 764 mmHg 59%
    12:00 +7°C° 0 mm 4 mps 765 mmHg 54%
    13:00 +7°C° 0 mm 4 mps 765 mmHg 50%
    14:00 +7°C° 0 mm 4 mps 765 mmHg 46%
    15:00 +7°C° 0 mm 4 mps 765 mmHg 43%
    16:00 +8°C° 0 mm 3 mps 765 mmHg 41%
    17:00 +8°C° 0 mm 3 mps 765 mmHg 40%
    18:00 +7°C° 0 mm 3 mps 766 mmHg 39%
    19:00 +7°C° 0 mm 3 mps 766 mmHg 42%
    20:00 +6°C° 0 mm 2 mps 767 mmHg 44%
    21:00 +5°C° 0 mm 2 mps 767 mmHg 47%
    22:00 +5°C° 0 mm 2 mps 767 mmHg 50%
    23:00 +4°C° 0 mm 2 mps 768 mmHg 53%

    29 March, Friday

    Time Temperature Precipitation Wind Pressure Humidity
    00:00 +5°C° 0 mm 1 mps 768 mmHg 56%
    01:00 +4°C° 0 mm 2 mps 768 mmHg 59%
    02:00 +3°C° 0 mm 2 mps 768 mmHg 62%
    03:00 +3°C° 0 mm 2 mps 768 mmHg 65%
    04:00 +2°C° 0 mm 2 mps 768 mmHg 66%
    05:00 +2°C° 0 mm 2 mps 768 mmHg 67%
    06:00 +3°C° 0 mm 1 mps 769 mmHg 69%
    07:00 +3°C° 0 mm 2 mps 769 mmHg 62%
    08:00 +4°C° 0 mm 2 mps 769 mmHg 56%
    09:00 +5°C° 0 mm 2 mps 769 mmHg 50%
    10:00 +6°C° 0 mm 2 mps 769 mmHg 46%
    11:00 +7°C° 0 mm 3 mps 768 mmHg 41%
    12:00 +7°C° 0 mm 4 mps 768 mmHg 37%
    13:00 +7°C° 0 mm 4 mps 768 mmHg 37%
    14:00 +7°C° 0 mm 4 mps 767 mmHg 37%
    15:00 +8°C° 0 mm 5 mps 767 mmHg 37%
    16:00 +7°C° 0 mm 4 mps 767 mmHg 38%
    17:00 +7°C° 0 mm 4 mps 766 mmHg 39%
    18:00 +7°C° 0 mm 4 mps 766 mmHg 41%
    19:00 +7°C° 0 mm 3 mps 766 mmHg 45%
    20:00 +5°C° 0 mm 3 mps 766 mmHg 49%
    21:00 +5°C° 0 mm 3 mps 767 mmHg 53%
    22:00 +4°C° 0 mm 3 mps 766 mmHg 56%
    23:00 +4°C° 0 mm 3 mps 766 mmHg 60%

    30 March, Saturday

    Time Temperature Precipitation Wind Pressure Humidity
    00:00 +3°C° 0 mm 3 mps 766 mmHg 63%
    01:00 +3°C° 0 mm 3 mps 766 mmHg 63%
    02:00 +3°C° 0 mm 3 mps 766 mmHg 63%
    03:00 +3°C° 0 mm 3 mps 765 mmHg 62%
    04:00 +3°C° 0 mm 3 mps 765 mmHg 64%
    05:00 +3°C° 0 mm 3 mps 765 mmHg 66%
    06:00 +3°C° 0 mm 3 mps 765 mmHg 67%
    07:00 +4°C° 0 mm 3 mps 766 mmHg 66%
    08:00 +5°C° 0 mm 3 mps 766 mmHg 64%
    09:00 +7°C° 0 mm 3 mps 766 mmHg 62%
    10:00 +9°C° 0 mm 3 mps 766 mmHg 58%
    11:00 +10°C° 0 mm 3 mps 766 mmHg 55%
    12:00 +12°C° 0 mm 3 mps 766 mmHg 51%
    13:00 +12°C° 0 mm 3 mps 765 mmHg 50%
    14:00 +13°C° 0 mm 3 mps 765 mmHg 49%
    15:00 +13°C° 0 mm 3 mps 765 mmHg 47%
    16:00 +13°C° 0 mm 3 mps 764 mmHg 50%
    17:00 +13°C° 0 mm 2 mps 764 mmHg 52%
    18:00 +13°C° 0 mm 2 mps 764 mmHg 54%
    19:00 +12°C° 0 mm 2 mps 764 mmHg 57%
    20:00 +10°C° 0 mm 2 mps 765 mmHg 61%
    21:00 +9°C° 0 mm 2 mps 765 mmHg 64%
    22:00 +9°C° 0 mm 2 mps 765 mmHg 65%
    23:00 +9°C° 0 mm 1 mps 764 mmHg 66%

    31 March, Sunday

    Time Temperature Precipitation Wind Pressure Humidity
    00:00 +9°C° 0 mm 1 mps 764 mmHg 67%
    01:00 +8°C° 0 mm 1 mps 764 mmHg 68%
    02:00 +8°C° 0 mm 1 mps 764 mmHg 69%
    03:00 +7°C° 0 mm 0 mps 763 mmHg 70%
    04:00 +7°C° 0 mm 0 mps 763 mmHg 72%
    05:00 +7°C° 0 mm 1 mps 763 mmHg 73%
    06:00 +7°C° 0 mm 1 mps 763 mmHg 74%
    07:00 +9°C° 0 mm 1 mps 762 mmHg 68%
    08:00 +10°C° 0 mm 1 mps 762 mmHg 63%
    09:00 +10°C° 0 mm 2 mps 762 mmHg 58%
    10:00 +13°C° 0 mm 2 mps 762 mmHg 52%
    11:00 +14°C° 0 mm 2 mps 761 mmHg 46%
    12:00 +14°C° 0 mm 3 mps 761 mmHg 41%
    13:00 +16°C° 0 mm 3 mps 760 mmHg 38%
    14:00 +17°C° 0 mm 4 mps 759 mmHg 36%
    15:00 +17°C° 0 mm 4 mps 758 mmHg 34%
    16:00 +17°C° 0 mm 4 mps 758 mmHg 36%
    17:00 +16°C° 0 mm 3 mps 757 mmHg 39%
    18:00 +16°C° 0 mm 3 mps 757 mmHg 41%
    19:00 +13°C° 0 mm 3 mps 757 mmHg 44%
    20:00 +12°C° 0 mm 3 mps 757 mmHg 47%
    21:00 +11°C° 0 mm 3 mps 757 mmHg 50%
    22:00 +11°C° 0 mm 3 mps 757 mmHg 53%
    23:00 +10°C° 0 mm 3 mps 756 mmHg 55%
    Show more